User: anonymous   Login
Location: Prairie State College
(41.5244°N, 87.6382°W)
Time: 15:53:25
(UTC-05:00)
Language:

ARGOS Delta rocket - Orbit

View from above orbital plane
View from above orbital plane
View from above satellite
View from above satellite

Ground track
Ground track

The orbit data is extracted from the following two-line orbital elements,

1 25637U 99008D   17084.77315284 +.00000040 +00000-0 +17660-4 0  9994
2 25637 096.4876 004.3325 0142444 185.7314 232.1809 14.46502692953551
Epoch (UTC): 25 March 2017 18:33:20
Eccentricity: 0.0142444
inclination: 96.4876°
perigee height: 636 km
apogee height: 838 km
right ascension of ascending node: 4.3325°
argument of perigee: 185.7314°
revolutions per day: 14.46502692
mean anomaly at epoch: 232.1809°
orbit number at epoch: 95355

The dashed part of the orbit path shows where the satellite is in the earth's shadow,  

DLR